ABR71S LSGG-LEGE

Flight info

Callsign ABR71S
Flight time 1h 2m
Altitude 33000
Route BALSI DCT RETNO DCT TUPOX DCT MTG DCT DIVKO G7 MAMES M984 BGR
Aircraft B738/M-SDE2E3FGHIRWXY/LB1

Departure

Time 2026-05-07 15:29
Airport Geneva International Airport (LSGG)

Arrival

Time 2026-05-07 16:31
Airport Girona-Costa Brava Airport (LEGE)
Time Latitude Longitude Altitude Speed Heading
2026-05-07 15:13 46.22903 6.10147 1387 ft 0 kts 136°
2026-05-07 15:18 46.22903 6.10146 1387 ft 1 kts 136°
2026-05-07 15:19 46.22919 6.10123 1384 ft 4 kts 137°
2026-05-07 15:19 46.22941 6.10104 1386 ft 4 kts 173°
2026-05-07 15:19 46.22964 6.10110 1386 ft 4 kts 222°
2026-05-07 15:19 46.22967 6.10115 1383 ft 1 kts 225°
2026-05-07 15:23 46.22966 6.10113 1386 ft 0 kts 225°
2026-05-07 15:23 46.22962 6.10107 1386 ft 1 kts 225°
2026-05-07 15:23 46.22952 6.10092 1388 ft 3 kts 225°
2026-05-07 15:24 46.22937 6.10069 1385 ft 4 kts 225°
2026-05-07 15:24 46.22919 6.10043 1387 ft 4 kts 225°
2026-05-07 15:24 46.22904 6.10014 1389 ft 4 kts 245°
2026-05-07 15:24 46.22900 6.09978 1390 ft 4 kts 267°
2026-05-07 15:25 46.22900 6.09970 1390 ft 1 kts 268°
2026-05-07 15:25 46.22897 6.09918 1394 ft 10 kts 259°
2026-05-07 15:25 46.22854 6.09831 1395 ft 14 kts 225°
2026-05-07 15:25 46.22763 6.09697 1401 ft 22 kts 225°
2026-05-07 15:26 46.22649 6.09533 1404 ft 23 kts 225°
2026-05-07 15:26 46.22573 6.09411 1401 ft 14 kts 237°
2026-05-07 15:26 46.22548 6.09278 1409 ft 12 kts 270°
2026-05-07 15:26 46.22548 6.09272 1405 ft 0 kts 271°
2026-05-07 15:27 46.22548 6.09270 1405 ft 2 kts 271°
2026-05-07 15:27 46.22552 6.09215 1407 ft 10 kts 283°
2026-05-07 15:28 46.22616 6.09165 1402 ft 13 kts 20°
2026-05-07 15:28 46.22682 6.09247 1410 ft 12 kts 45°
2026-05-07 15:28 46.22776 6.09387 1405 ft 43 kts 44°
2026-05-07 15:28 46.23172 6.09965 1398 ft 116 kts 45°
2026-05-07 15:29 46.23867 6.10992 1486 ft 165 kts 46°
2026-05-07 15:29 46.24692 6.12228 2132 ft 179 kts 45°
2026-05-07 15:29 46.25591 6.13555 2928 ft 190 kts 45°
2026-05-07 15:29 46.26541 6.14969 3511 ft 205 kts 43°
2026-05-07 15:30 46.27562 6.16464 4095 ft 212 kts 44°
2026-05-07 15:30 46.28625 6.18015 4642 ft 224 kts 44°
2026-05-07 15:30 46.29747 6.19657 5173 ft 235 kts 44°
2026-05-07 15:30 46.30927 6.21387 5690 ft 245 kts 45°
2026-05-07 15:31 46.32143 6.23171 6220 ft 251 kts 45°
2026-05-07 15:31 46.33374 6.24980 6846 ft 256 kts 45°
2026-05-07 15:31 46.34636 6.26834 7479 ft 262 kts 46°
2026-05-07 15:31 46.35642 6.29026 8086 ft 264 kts 75°
2026-05-07 15:32 46.35707 6.31643 8753 ft 262 kts 107°
2026-05-07 15:32 46.34890 6.33959 9418 ft 260 kts 134°
2026-05-07 15:32 46.33429 6.35437 10057 ft 257 kts 162°
2026-05-07 15:32 46.31663 6.35774 10540 ft 266 kts 188°
2026-05-07 15:33 46.29814 6.35107 10957 ft 283 kts 198°
2026-05-07 15:33 46.27869 6.34239 11342 ft 302 kts 198°
2026-05-07 15:33 46.25801 6.33318 11752 ft 320 kts 198°
2026-05-07 15:33 46.23613 6.32358 12152 ft 337 kts 198°
2026-05-07 15:34 46.21329 6.31308 12544 ft 350 kts 204°
2026-05-07 15:34 46.19307 6.29371 13266 ft 351 kts 224°
2026-05-07 15:34 46.17663 6.26765 14144 ft 351 kts 231°
2026-05-07 15:34 46.16110 6.24026 14889 ft 354 kts 232°
2026-05-07 15:35 46.14556 6.21238 15580 ft 359 kts 232°
2026-05-07 15:35 46.12997 6.18464 16265 ft 362 kts 232°
2026-05-07 15:35 46.11393 6.15643 17003 ft 365 kts 231°
2026-05-07 15:35 46.09770 6.12814 17745 ft 368 kts 231°
2026-05-07 15:36 46.08124 6.09962 18389 ft 372 kts 231°
2026-05-07 15:36 46.06461 6.07090 18982 ft 376 kts 231°
2026-05-07 15:36 46.04781 6.04193 19588 ft 378 kts 232°
2026-05-07 15:36 46.02980 6.01405 20157 ft 384 kts 220°
2026-05-07 15:37 46.00630 5.99522 20706 ft 392 kts 202°
2026-05-07 15:37 45.97931 5.98707 21297 ft 401 kts 187°
2026-05-07 15:37 45.95132 5.98553 21869 ft 405 kts 184°
2026-05-07 15:37 45.92298 5.98465 22381 ft 409 kts 185°
2026-05-07 15:38 45.89433 5.98339 22897 ft 413 kts 185°
2026-05-07 15:38 45.86555 5.98176 23442 ft 416 kts 186°
2026-05-07 15:38 45.83650 5.98030 23900 ft 419 kts 185°
2026-05-07 15:38 45.80728 5.97945 24348 ft 421 kts 185°
2026-05-07 15:39 45.77788 5.97814 24818 ft 423 kts 186°
2026-05-07 15:39 45.74847 5.97635 25264 ft 425 kts 186°
2026-05-07 15:39 45.71883 5.97452 25689 ft 427 kts 186°
2026-05-07 15:39 45.68901 5.97277 26111 ft 429 kts 186°
2026-05-07 15:40 45.65904 5.97108 26547 ft 432 kts 186°
2026-05-07 15:40 45.62902 5.96942 26940 ft 434 kts 186°
2026-05-07 15:40 45.59881 5.96775 27370 ft 434 kts 186°
2026-05-07 15:40 45.56860 5.96608 27749 ft 436 kts 186°
2026-05-07 15:41 45.53812 5.96438 28076 ft 440 kts 186°
2026-05-07 15:41 45.50746 5.96268 28461 ft 441 kts 186°
2026-05-07 15:41 45.47727 5.96087 28985 ft 438 kts 188°
2026-05-07 15:41 45.44764 5.95471 29736 ft 424 kts 195°
2026-05-07 15:42 45.41881 5.94581 30125 ft 424 kts 197°
2026-05-07 15:42 45.39000 5.93607 30443 ft 425 kts 198°
2026-05-07 15:42 45.36134 5.92628 30932 ft 421 kts 198°
2026-05-07 15:42 45.33301 5.91679 31512 ft 416 kts 197°
2026-05-07 15:43 45.30476 5.90757 31782 ft 418 kts 197°
2026-05-07 15:43 45.27630 5.89848 32059 ft 420 kts 197°
2026-05-07 15:43 45.24770 5.88948 32468 ft 419 kts 197°
2026-05-07 15:43 45.21941 5.88068 32923 ft 416 kts 197°
2026-05-07 15:44 45.16233 5.86297 32965 ft 420 kts 197°
2026-05-07 15:44 45.10544 5.84541 32978 ft 419 kts 197°
2026-05-07 15:45 45.04770 5.82754 32971 ft 430 kts 197°
2026-05-07 15:45 44.98887 5.80940 32967 ft 435 kts 197°
2026-05-07 15:46 44.90044 5.78226 32960 ft 435 kts 197°
2026-05-07 15:47 44.84126 5.76414 32935 ft 435 kts 197°
2026-05-07 15:47 44.78216 5.74606 32946 ft 434 kts 197°
2026-05-07 15:48 44.72321 5.72819 32960 ft 433 kts 197°
2026-05-07 15:48 44.66443 5.71022 32961 ft 432 kts 196°
2026-05-07 15:49 44.60561 5.69223 32960 ft 433 kts 196°
2026-05-07 15:49 44.54671 5.67433 32953 ft 433 kts 196°
2026-05-07 15:50 44.48789 5.65654 32949 ft 433 kts 196°
2026-05-07 15:50 44.42934 5.63886 32938 ft 433 kts 196°
2026-05-07 15:51 44.37088 5.61969 32948 ft 429 kts 202°
2026-05-07 15:51 44.31590 5.58978 32950 ft 427 kts 205°
2026-05-07 15:52 44.26051 5.55865 32947 ft 425 kts 205°
2026-05-07 15:52 44.20554 5.52822 32933 ft 424 kts 205°
2026-05-07 15:53 44.15065 5.49817 32950 ft 423 kts 205°
2026-05-07 15:53 44.09581 5.46823 32949 ft 423 kts 205°
2026-05-07 15:54 44.04109 5.43842 32954 ft 421 kts 205°
2026-05-07 15:54 43.98658 5.40877 32939 ft 420 kts 205°
2026-05-07 15:55 43.93213 5.37928 32950 ft 420 kts 205°
2026-05-07 15:55 43.87778 5.34998 32945 ft 418 kts 206°
2026-05-07 15:56 43.82369 5.32084 32957 ft 416 kts 206°
2026-05-07 15:56 43.76967 5.29179 32962 ft 416 kts 206°
2026-05-07 15:57 43.71615 5.26306 32965 ft 415 kts 206°
2026-05-07 15:57 43.66252 5.23434 32957 ft 412 kts 206°
2026-05-07 15:58 43.60917 5.20581 32964 ft 410 kts 206°
2026-05-07 15:58 43.55628 5.17757 32964 ft 408 kts 206°
2026-05-07 15:59 43.50329 5.14933 32961 ft 407 kts 207°
2026-05-07 15:59 43.45071 5.12137 32958 ft 403 kts 207°
2026-05-07 16:00 43.39856 5.09342 32961 ft 399 kts 209°
2026-05-07 16:00 43.35143 5.05508 32973 ft 390 kts 219°
2026-05-07 16:01 43.30717 5.01278 32957 ft 389 kts 219°
2026-05-07 16:01 43.26273 4.97080 32959 ft 387 kts 219°
2026-05-07 16:02 43.21831 4.92904 32969 ft 386 kts 218°
2026-05-07 16:02 43.17401 4.88746 32962 ft 385 kts 218°
2026-05-07 16:03 43.12982 4.84604 32964 ft 385 kts 218°
2026-05-07 16:03 43.08562 4.80468 32960 ft 385 kts 218°
2026-05-07 16:04 43.04129 4.76331 32967 ft 386 kts 218°
2026-05-07 16:04 42.99677 4.72188 32968 ft 388 kts 218°
2026-05-07 16:05 42.95224 4.68051 32956 ft 382 kts 218°
2026-05-07 16:05 42.90914 4.64057 32956 ft 371 kts 218°
2026-05-07 16:06 42.86666 4.60118 32969 ft 372 kts 218°
2026-05-07 16:06 42.82349 4.56122 32909 ft 371 kts 217°
2026-05-07 16:06 42.80256 4.54189 32573 ft 363 kts 217°
2026-05-07 16:07 42.78183 4.52278 32142 ft 357 kts 217°
2026-05-07 16:07 42.76140 4.50396 31711 ft 353 kts 218°
2026-05-07 16:07 42.74113 4.48528 31288 ft 350 kts 218°
2026-05-07 16:07 42.72122 4.46694 30869 ft 347 kts 218°
2026-05-07 16:08 42.70139 4.44868 30454 ft 344 kts 218°
2026-05-07 16:08 42.68155 4.43044 30042 ft 342 kts 218°
2026-05-07 16:08 42.66191 4.41239 29563 ft 340 kts 218°
2026-05-07 16:08 42.64240 4.39447 29126 ft 337 kts 218°
2026-05-07 16:09 42.62303 4.37669 28701 ft 334 kts 218°
2026-05-07 16:09 42.60387 4.35914 28286 ft 331 kts 217°
2026-05-07 16:09 42.59125 4.34757 28029 ft 330 kts 217°
2026-05-07 16:09 42.57196 4.32989 27609 ft 338 kts 217°
2026-05-07 16:10 42.55205 4.31162 27197 ft 353 kts 217°
2026-05-07 16:10 42.53160 4.29290 26738 ft 354 kts 216°
2026-05-07 16:10 42.51129 4.27437 26332 ft 350 kts 216°
2026-05-07 16:10 42.49118 4.25604 25892 ft 347 kts 216°
2026-05-07 16:11 42.47123 4.23787 25475 ft 344 kts 216°
2026-05-07 16:11 42.45148 4.21988 25064 ft 342 kts 216°
2026-05-07 16:11 42.43177 4.20194 24654 ft 340 kts 216°
2026-05-07 16:11 42.41221 4.18414 24261 ft 338 kts 215°
2026-05-07 16:12 42.39272 4.16642 23845 ft 337 kts 215°
2026-05-07 16:12 42.37324 4.14872 23405 ft 337 kts 215°
2026-05-07 16:12 42.35380 4.13107 22945 ft 336 kts 215°
2026-05-07 16:12 42.33449 4.11356 22528 ft 334 kts 215°
2026-05-07 16:13 42.31550 4.09634 22131 ft 331 kts 215°
2026-05-07 16:13 42.29643 4.07906 21742 ft 329 kts 215°
2026-05-07 16:13 42.27753 4.06194 21338 ft 327 kts 215°
2026-05-07 16:13 42.25866 4.04488 20947 ft 325 kts 215°
2026-05-07 16:14 42.23989 4.02792 20557 ft 323 kts 215°
2026-05-07 16:14 42.22196 4.00992 20165 ft 321 kts 224°
2026-05-07 16:14 42.20731 3.98734 19808 ft 319 kts 234°
2026-05-07 16:14 42.19588 3.96164 19445 ft 323 kts 244°
2026-05-07 16:15 42.18651 3.93359 19100 ft 332 kts 245°
2026-05-07 16:15 42.17722 3.90471 18727 ft 338 kts 246°
2026-05-07 16:15 42.16789 3.87560 18332 ft 339 kts 245°
2026-05-07 16:15 42.15847 3.84642 17903 ft 339 kts 245°
2026-05-07 16:16 42.14901 3.81734 17486 ft 338 kts 245°
2026-05-07 16:16 42.13957 3.78848 17086 ft 337 kts 245°
2026-05-07 16:16 42.13012 3.75971 16695 ft 334 kts 245°
2026-05-07 16:16 42.12074 3.73122 16312 ft 331 kts 245°
2026-05-07 16:17 42.11157 3.70340 15953 ft 327 kts 245°
2026-05-07 16:17 42.10226 3.67520 15586 ft 324 kts 245°
2026-05-07 16:17 42.09311 3.64754 15211 ft 322 kts 245°
2026-05-07 16:17 42.08400 3.62001 14877 ft 320 kts 245°
2026-05-07 16:18 42.07513 3.59307 14558 ft 318 kts 245°
2026-05-07 16:18 42.06621 3.56598 14240 ft 316 kts 245°
2026-05-07 16:18 42.05733 3.53901 13924 ft 316 kts 245°
2026-05-07 16:18 42.04842 3.51196 13584 ft 318 kts 245°
2026-05-07 16:19 42.03943 3.48471 13239 ft 319 kts 245°
2026-05-07 16:19 42.03045 3.45752 12897 ft 318 kts 245°
2026-05-07 16:19 42.02145 3.43029 12565 ft 318 kts 245°
2026-05-07 16:19 42.01249 3.40321 12238 ft 317 kts 245°
2026-05-07 16:20 42.00354 3.37616 11911 ft 316 kts 245°
2026-05-07 16:20 41.99465 3.34935 11588 ft 312 kts 245°
2026-05-07 16:20 41.98587 3.32285 11271 ft 308 kts 245°
2026-05-07 16:20 41.97719 3.29671 10958 ft 305 kts 245°
2026-05-07 16:21 41.96857 3.27080 10656 ft 302 kts 245°
2026-05-07 16:21 41.96015 3.24552 10336 ft 291 kts 245°
2026-05-07 16:21 41.95422 3.22014 10042 ft 281 kts 266°
2026-05-07 16:21 41.95688 3.19505 9974 ft 264 kts 288°
2026-05-07 16:22 41.96474 3.17375 9954 ft 246 kts 303°
2026-05-07 16:22 41.97398 3.15510 9844 ft 238 kts 303°
2026-05-07 16:22 41.98344 3.13638 9253 ft 246 kts 304°
2026-05-07 16:22 41.99317 3.11709 8737 ft 253 kts 304°
2026-05-07 16:23 42.00300 3.09751 8483 ft 251 kts 304°
2026-05-07 16:23 42.01268 3.07813 8267 ft 249 kts 304°
2026-05-07 16:23 42.02210 3.05918 8116 ft 240 kts 304°
2026-05-07 16:23 42.03107 3.04110 7923 ft 228 kts 304°
2026-05-07 16:24 42.03987 3.02331 7506 ft 229 kts 304°
2026-05-07 16:24 42.04866 3.00553 7217 ft 227 kts 304°
2026-05-07 16:24 42.05735 2.98791 6902 ft 225 kts 304°
2026-05-07 16:24 42.06600 2.97037 6598 ft 222 kts 304°
2026-05-07 16:25 42.07426 2.95360 6441 ft 211 kts 305°
2026-05-07 16:25 42.08234 2.93718 6166 ft 209 kts 305°
2026-05-07 16:25 42.09031 2.92099 5908 ft 206 kts 304°
2026-05-07 16:25 42.09828 2.90505 5594 ft 204 kts 304°
2026-05-07 16:26 42.10611 2.88908 5241 ft 204 kts 303°
2026-05-07 16:26 42.11100 2.87137 4880 ft 204 kts 273°
2026-05-07 16:26 42.10835 2.85283 4440 ft 206 kts 238°
2026-05-07 16:26 42.09783 2.84117 4212 ft 193 kts 204°
2026-05-07 16:27 42.08574 2.83422 3945 ft 185 kts 202°
2026-05-07 16:27 42.07414 2.82767 3707 ft 177 kts 200°
2026-05-07 16:27 42.06261 2.82223 3478 ft 173 kts 197°
2026-05-07 16:27 42.05119 2.81762 3253 ft 169 kts 195°
2026-05-07 16:28 42.04006 2.81333 3036 ft 168 kts 195°
2026-05-07 16:28 42.02893 2.80910 2812 ft 164 kts 195°
2026-05-07 16:28 42.01801 2.80496 2602 ft 161 kts 194°
2026-05-07 16:28 42.00754 2.80098 2422 ft 158 kts 194°
2026-05-07 16:29 41.99700 2.79698 2183 ft 152 kts 193°
2026-05-07 16:29 41.98722 2.79327 1987 ft 142 kts 192°
2026-05-07 16:29 41.97795 2.78975 1796 ft 137 kts 192°
2026-05-07 16:29 41.96891 2.78633 1619 ft 136 kts 193°
2026-05-07 16:30 41.95944 2.78273 1424 ft 146 kts 194°
2026-05-07 16:30 41.94985 2.77911 1258 ft 140 kts 193°
2026-05-07 16:30 41.94037 2.77559 1053 ft 139 kts 195°
2026-05-07 16:30 41.93096 2.77193 852 ft 143 kts 194°
2026-05-07 16:31 41.92160 2.76839 631 ft 136 kts 194°
2026-05-07 16:31 41.91274 2.76500 484 ft 129 kts 191°
2026-05-07 16:31 41.90498 2.76212 438 ft 93 kts 197°
2026-05-07 16:31 41.90084 2.76052 422 ft 41 kts 196°
2026-05-07 16:32 41.89789 2.75942 412 ft 43 kts 195°
2026-05-07 16:32 41.89559 2.75862 408 ft 20 kts 178°
2026-05-07 16:32 41.89524 2.75934 407 ft 9 kts 72°
2026-05-07 16:32 41.89559 2.76025 409 ft 13 kts 62°
2026-05-07 16:33 41.89613 2.76101 411 ft 9 kts 18°
2026-05-07 16:33 41.89689 2.76132 413 ft 16 kts 17°
2026-05-07 16:33 41.89827 2.76182 413 ft 18 kts 15°
2026-05-07 16:33 41.89907 2.76250 415 ft 7 kts 87°
2026-05-07 16:34 41.89904 2.76267 420 ft 1 kts 104°
2026-05-07 16:34 41.89903 2.76274 420 ft 1 kts 104°
2026-05-07 16:34 41.89902 2.76275 420 ft 0 kts 104°
2026-05-07 16:34 41.89898 2.76297 417 ft 6 kts 105°
2026-05-07 16:35 41.89875 2.76378 414 ft 13 kts 114°
2026-05-07 16:35 41.89851 2.76479 418 ft 7 kts 105°
2026-05-07 16:35 41.89851 2.76481 418 ft 0 kts 105°